Regional Weather Roundup
Issued by NWS

Home | Current Version | Previous Version | Graphics & Text | Print | Product List | Glossary On
Versions: 1 2 3 4 5 6 7 8 9 10 11 12 13 14 15 16 17 18 19 20 21 22 23 24 25 26 27 28 29 30 31 32 33 34 35 36 37 38 39 40 41 42 43 44 45 46 47 48 49 50
000
ASUS45 KPSR 200700
RWRAZ

PRELIMINARY ARIZONA REGIONAL HOURLY WEATHER ROUNDUP
NATIONAL WEATHER SERVICE PHOENIX AZ
1200 AM MST SUN APR 20 2014

NOTE: FAIR INDICATES FEW OR NO CLOUDS BELOW 12,000 FEET WITH NO
SIGNIFICANT WEATHER AND/OR OBSTRUCTIONS TO VISIBILITY.

AZZ001>003-036-200800-
NORTHWEST ARIZONA

CITY           SKY/WX    TMP DP  RH WIND       PRES   REMARKS
KINGMAN        PTCLDY    57  36  45 SE7       30.06R
$$

AZZ004>008-015-016-018-200800-
NORTH CENTRAL ARIZONA

CITY           SKY/WX    TMP DP  RH WIND       PRES   REMARKS
GRAND CANYON   CLEAR     34  32  92 E3        30.20S
WILLIAMS       CLEAR     37  32  81 SE7       30.27S WCI  32
PRESCOTT       CLEAR     51  34  52 S8        30.14S
FLAGSTAFF      CLEAR     33  28  81 CALM      30.21F
PAYSON         CLOUDY    54  39  58 N3        30.17S
PAGE           CLEAR     62  35  36 W5        30.06R
$$

AZZ009>014-017-200800-
NORTHEAST ARIZONA

CITY           SKY/WX    TMP DP  RH WIND       PRES   REMARKS
WINSLOW        NOT AVBL
SAINT JOHNS    PTCLDY    43  37  79 S5        30.16S
WINDOW ROCK    PTCLDY    43  37  79 CALM      30.19F
SHOW LOW       PTCLDY    45  36  70 S9        30.22S
$$

AZZ023-200800-
GREATER PHOENIX AREA

CITY           SKY/WX    TMP DP  RH WIND       PRES   REMARKS
PHOENIX        PTCLDY    75  40  28 CALM      29.95R
LUKE AFB       NOT AVBL
DEER VALLEY    CLEAR     69  36  29 CALM      29.97R
SCOTTSDALE     PTCLDY    72  41  32 CALM      29.98S
MESA-GATEWAY   PTCLDY    68  43  40 SE13      30.00R
$$

AZZ027-028-200800-
SOUTHWEST MARICOPA COUNTY AND PINAL COUNTY

CITY           SKY/WX    TMP DP  RH WIND       PRES   REMARKS
CASA GRANDE    PTCLDY    64  37  36 CALM      30.00R
$$

AZZ503-504-507>509-200800-
SOUTHEAST ARIZONA

CITY           SKY/WX    TMP DP  RH WIND       PRES   REMARKS
TUCSON         CLEAR     63  42  46 SE5       30.07S
DAVIS-MONTHAN  CLEAR     62  42  48 S6        30.06S
NOGALES        CLEAR     54  40  59 CALM      30.10S
SIERRA VISTA   CLEAR     53  40  61 MISG      30.14S
SAFFORD        PTCLDY    56  40  55 N6        30.07R
$$

AZZ020-021-025-026-031-200800-
SOUTHWEST ARIZONA

CITY           SKY/WX    TMP DP  RH WIND       PRES   REMARKS
YUMA           CLEAR     72  42  34 S9        29.94R
$$

CAZ031-033-041-043-047-048-061-200800-
SOUTHERN CALIFORNIA

CITY           SKY/WX    TMP DP  RH WIND       PRES   REMARKS
DOWNTOWN L.A.  CLEAR     60  54  80 CALM      30.05R
L.A. AIRPORT   PTCLDY    60  55  83 CALM      30.05S
SAN DIEGO      PTCLDY    63  54  72 CALM      30.07S
BURBANK        CLEAR     61  52  72 SE6       30.04S
ONTARIO        CLEAR     61  51  70 W5        30.05R
RIVERSIDE      CLEAR     62  52  69 CALM      30.05S
PALM SPRINGS   CLEAR     76  48  37 NW9       29.96R
EL CENTRO NAS  CLEAR     73  47  39 S7        29.91R
IMPERIAL       CLEAR     76  46  34 SW7       29.90S
BLYTHE         CLEAR     78  40  25 SW5       29.92R
$$

NVZ020-UTZ003-200800-
SOUTHERN NEVADA-UTAH

CITY           SKY/WX    TMP DP  RH WIND       PRES   REMARKS
LAS VEGAS      NOT AVBL
SALT LAKE CITY PTCLDY    55  38  52 SE9       30.00S
$$

NMZ009-TXZ055-200800-
NEW MEXICO-WEST TEXAS

CITY           SKY/WX    TMP DP  RH WIND       PRES   REMARKS
ALBUQUERQUE    CLOUDY    52  45  77 SE3       30.14S
EL PASO        MOCLDY    55  50  83 CALM      30.10S
$$


........................KEY........................
SKY/WX - SKY CONDITION/WEATHER
TMP    - TEMPERATURE IN FAHRENHEIT
DP     - DEW POINT IN FAHRENHEIT
RH     - RELATIVE HUMIDITY IN PERCENT
WIND   - DIRECTION AND SPEED IN MILES PER HOUR (MPH)
VRB    - VARIABLE WIND DIRECTION
PRES   - MEAN SEA LEVEL PRESSURE IN INCHES OF MERCURY
         F - FALLING PRESSURE   R - RISING PRESSURE
         S - STEADY PRESSURE
VSB    - VISIBILITY IN MILES
HX     - HEAT INDEX IN FAHRENHEIT
WCI    - WIND CHILL INDEX IN FAHRENHEIT
TC     - TEMPERATURE IN CELSIUS WHICH IS ALSO KNOWN AS
         TEMPERATURE IN CENTIGRADE
AFB    - AIR FORCE BASE
         LUKE AFB IS LUKE AIR FORCE BASE
         DAVIS-MONTHAN IS DAVIS-MONTHAN AIR FORCE BASE
NAS    - NAVAL AIR STATION
         EL CENTRO NAS IS EL CENTRO NAVAL AIR STATION
N/A    - NOT AVAILABLE



USA.gov is the U.S. government's official web portal to all federal, state and local government web resources and services.